DateTimeUTC,F1_A11,F1_S11,BsB_S11,BsG_S11,BsR_S11,BbsB_S11,BbsG_S11,BbsR_S11,BaB_A11,BaG_A11,BaR_A11,T_S11,U_S11,P_S11,T1_A11
2020-11-09T00:00:00Z,00040380,21000600,,,,,,,,,,22.8,00.0,0641.2,30.9
2020-11-09T00:01:00Z,00040380,21000600,,,,,,,,,,22.8,00.0,0641.2,30.9
2020-11-09T00:02:00Z,00040380,21000600,,,,,,,,,,22.8,00.0,0641.2,30.9
2020-11-09T00:03:00Z,00040380,61000600,,,,,,,,,,22.8,00.0,0641.2,30.9
2020-11-09T00:04:00Z,00040380,41000600,-000.72,0000.53,0000.05,0000.08,0000.04,-000.17,0000.15,0000.10,-000.18,22.6,00.0,0642.0,30.9
2020-11-09T00:05:00Z,00040380,01000600,0001.61,-000.04,-000.26,0000.12,-000.05,-000.11,0000.11,0000.13,0000.39,22.5,00.0,0642.1,30.8
2020-11-09T00:06:00Z,00040380,01000600,0001.66,0000.69,-000.43,-000.21,0000.27,0000.15,0000.09,0000.05,-000.18,22.6,00.0,0642.1,30.9
2020-11-09T00:07:00Z,00040380,01000600,-000.38,0000.46,0000.13,-000.29,0000.13,-000.13,-000.03,-000.09,0000.16,22.6,00.0,0642.1,30.9
2020-11-09T00:08:00Z,00040380,01000600,0000.23,0000.45,-000.06,-000.84,-000.30,0000.27,0000.03,0000.25,-000.01,22.6,00.0,0642.1,30.9
2020-11-09T00:09:00Z,00040380,01000600,0000.53,0000.74,0000.29,0000.02,-000.17,-000.02,0000.10,-000.09,-000.01,22.6,00.0,0642.2,30.9
2020-11-09T00:10:00Z,00040380,01000600,-000.58,0000.93,0000.33,-000.23,0000.01,0000.01,-000.09,0000.08,-000.11,22.6,00.0,0642.2,30.9
2020-11-09T00:11:00Z,00040380,01000600,0000.01,0000.44,0000.32,-000.11,0000.40,-000.22,0000.12,0000.18,0000.28,22.5,00.0,0642.2,30.9
2020-11-09T00:12:00Z,00040380,01000600,0001.90,0000.75,0000.18,-000.14,0000.15,-000.34,-000.09,-000.09,-000.28,22.6,00.0,0642.2,30.9
2020-11-09T00:13:00Z,00040380,01000600,-000.15,0000.55,-000.04,-000.53,0000.16,-000.45,0000.00,-000.09,0000.08,22.6,00.0,0642.2,30.9
2020-11-09T00:14:00Z,00040380,01000600,0000.58,0000.39,-000.02,0000.64,-000.21,-000.03,-000.01,-000.24,0000.05,22.6,00.0,0642.1,30.9
2020-11-09T00:15:00Z,00040380,01000600,0000.09,0000.50,-000.33,-000.11,0000.06,-000.33,-000.13,0000.26,0000.12,22.6,00.0,0642.1,30.9
2020-11-09T00:16:00Z,00040380,01000600,-001.22,0001.03,-000.53,-000.25,0000.20,-000.51,0000.09,0000.00,-000.02,22.5,00.0,0642.1,30.9
2020-11-09T00:17:00Z,00040380,01000600,0001.25,0000.26,0000.19,-000.14,-000.01,-000.23,0000.29,0000.18,-000.02,22.5,00.0,0642.1,30.9
2020-11-09T00:18:00Z,00040380,01000600,0000.10,0000.91,0000.10,-000.48,0000.02,-000.11,-000.22,-000.08,-000.01,22.5,00.0,0642.1,30.9
2020-11-09T00:19:00Z,00040380,01000600,0001.51,0000.20,0000.13,-000.62,-000.40,-000.17,0000.22,-000.11,0000.07,22.5,00.0,0642.1,30.9
2020-11-09T00:20:00Z,00040380,01000600,0000.99,-000.00,-000.20,-000.09,0000.24,-000.03,0000.13,0000.14,-000.01,22.5,00.0,0642.1,30.9
2020-11-09T00:21:00Z,00040380,01000600,0000.20,0000.60,0000.02,-000.65,-000.11,-000.21,0000.06,0000.02,0000.14,22.5,00.0,0642.1,30.9
2020-11-09T00:22:00Z,00040380,01000600,-000.47,0000.44,0000.18,0000.48,-000.09,-000.08,-000.07,0000.17,0000.08,22.5,00.0,0642.1,30.9
2020-11-09T00:23:00Z,00040380,01000600,0001.23,0000.09,0000.31,0000.46,0000.08,0000.03,0000.14,-000.00,-000.06,22.5,00.0,0642.1,30.9
2020-11-09T00:24:00Z,00040380,01000600,-000.05,0000.58,-000.40,0000.13,0000.23,-000.23,0000.07,-000.02,0000.03,22.6,00.0,0642.1,30.9
2020-11-09T00:25:00Z,00040380,01000600,0000.32,0000.62,0000.13,0000.12,0000.01,0000.04,-000.02,0000.16,0000.09,22.6,00.0,0642.1,30.9
2020-11-09T00:26:00Z,00040380,01000600,0000.96,0000.63,0000.03,0000.11,0000.00,-000.38,0000.22,0000.14,0000.12,22.5,00.0,0642.1,30.9
2020-11-09T00:27:00Z,00040380,01000600,0000.47,0000.55,-000.16,0000.56,-000.33,0000.35,0000.06,0000.01,0000.11,22.6,00.0,0642.1,30.9
2020-11-09T00:28:00Z,00040380,01000600,0000.16,-000.09,0000.20,0000.55,-000.18,-000.28,0000.07,0000.08,0000.03,22.5,00.0,0642.1,30.9
2020-11-09T00:29:00Z,00040380,01000600,-000.22,-000.04,0000.00,0000.84,0000.18,-000.38,0000.15,0000.21,0000.08,22.5,00.0,0642.0,30.9
2020-11-09T00:30:00Z,00040380,01000600,0000.24,-000.02,-000.05,-000.42,0000.11,-000.27,-000.04,0000.03,0000.03,22.5,00.0,0642.0,30.9
2020-11-09T00:31:00Z,00040380,01000600,-000.72,0000.54,-000.28,0000.77,0000.30,0000.09,0000.02,-000.05,0000.08,22.5,00.0,0642.0,30.9
2020-11-09T00:32:00Z,00040380,01000600,-000.04,0000.34,0000.09,-000.11,-000.19,-000.05,0000.03,0000.09,-000.18,22.5,00.0,0642.0,30.9
2020-11-09T00:33:00Z,00040380,01000600,0000.50,0001.06,-000.47,-000.26,0000.27,0000.01,-000.09,-000.31,0000.05,22.5,00.0,0642.0,30.8
2020-11-09T00:34:00Z,00040380,01000600,0002.04,0000.45,-000.50,0000.32,-000.03,-000.10,0000.15,0000.18,-000.06,22.5,00.0,0642.0,30.8
2020-11-09T00:35:00Z,00040380,01000600,0000.70,0000.67,0000.07,0000.34,0000.19,-000.27,0000.20,0000.11,0000.11,22.4,00.0,0642.0,30.8
2020-11-09T00:36:00Z,00040380,01000600,0000.07,0000.84,-000.44,0001.19,0000.39,-000.23,0000.00,0000.03,0000.08,22.4,00.0,0642.0,30.8
2020-11-09T00:37:00Z,00040380,01000600,0001.01,-000.11,-000.03,-000.89,-000.04,-000.03,0000.10,-000.10,-000.08,22.5,00.0,0642.1,30.9
2020-11-09T00:38:00Z,00040380,01000600,-000.72,0000.54,-000.01,-000.18,0000.06,-000.23,-000.20,0000.07,0000.06,22.5,00.0,0642.1,30.9
2020-11-09T00:39:00Z,00040380,01000600,0001.00,0000.74,-000.12,0000.44,0000.16,-000.21,0000.02,-000.08,0000.02,22.5,00.0,0642.1,30.9
2020-11-09T00:40:00Z,00040380,01000600,0000.59,0000.22,-000.04,0000.12,0000.10,-000.28,-000.20,0000.04,-000.14,22.6,00.0,0642.1,30.9
2020-11-09T00:41:00Z,00040380,01000600,0000.27,0000.34,0000.17,0000.28,0000.00,0000.02,-000.07,0000.01,0000.07,22.5,00.0,0642.1,30.9
2020-11-09T00:42:00Z,00040380,01000600,0000.06,0000.26,-000.80,0000.79,-000.43,-000.12,0000.27,0000.20,0000.03,22.5,00.0,0642.1,30.9
2020-11-09T00:43:00Z,00040380,01000600,0000.00,0000.98,0000.04,-000.70,0000.42,-000.18,-000.08,-000.12,0000.05,22.5,00.0,0642.1,30.9
2020-11-09T00:44:00Z,00040380,01000600,0000.43,0000.34,-000.13,-000.02,-000.18,-000.10,0000.15,0000.13,0000.13,22.5,00.0,0642.1,30.9
2020-11-09T00:45:00Z,00040380,01000600,0000.51,0000.30,0000.61,0000.34,0000.37,-000.22,0000.08,-000.03,0000.07,22.5,00.0,0642.1,30.9
2020-11-09T00:46:00Z,00040380,01000600,0000.65,0000.63,0000.09,-000.59,0000.37,-000.33,0000.20,0000.11,-000.10,22.5,00.0,0642.1,30.9
2020-11-09T00:47:00Z,00040380,01000600,0000.81,0000.70,0000.36,0000.07,-000.30,-000.11,-000.07,0000.04,-000.02,22.5,00.0,0642.0,30.9
2020-11-09T00:48:00Z,00040380,01000600,0000.05,0000.50,-000.23,-000.16,-000.12,0000.06,0000.07,-000.09,0000.08,22.5,00.0,0642.0,30.9
2020-11-09T00:49:00Z,00040380,01000600,0000.29,0000.73,0000.14,0000.21,-000.08,0000.05,0000.22,0000.20,0000.23,22.5,00.0,0642.0,30.9
2020-11-09T00:50:00Z,00040380,01000600,0001.00,0000.43,-000.07,0000.06,-000.18,-000.32,0000.11,0000.06,-000.05,22.4,00.0,0642.0,30.9
2020-11-09T00:51:00Z,00040380,01000600,0001.67,0000.29,0000.37,0000.41,0000.08,-000.00,-000.22,0000.08,0000.17,22.4,00.0,0642.0,30.9
2020-11-09T00:52:00Z,00040380,01000600,0000.58,0000.48,0000.01,0000.73,0000.50,-000.04,0000.11,0000.12,-000.07,22.5,00.0,0642.0,30.9
2020-11-09T00:53:00Z,00040380,01000600,0000.98,0000.71,0000.45,0000.58,0000.16,-000.20,0000.24,-000.08,0000.13,22.5,00.0,0642.0,30.9
2020-11-09T00:54:00Z,00040380,01000600,0001.70,0000.70,0000.38,0000.34,0000.26,-000.00,-000.19,-000.10,-000.24,22.6,00.0,0642.0,30.9
2020-11-09T00:55:00Z,00040380,01000600,0001.09,-000.02,-000.12,0000.18,-000.15,-000.10,0000.17,0000.23,0000.33,22.6,00.0,0642.0,30.9
2020-11-09T00:56:00Z,00040380,01000600,-000.06,0000.12,0000.09,-000.97,0000.26,-000.44,-000.01,-000.00,-000.12,22.6,00.0,0642.1,30.9
2020-11-09T00:57:00Z,00040380,41000600,,,,,,,,,,22.6,00.0,0642.1,30.9
2020-11-09T00:58:00Z,00040380,61000600,,,,,,,,,,22.7,00.0,0641.2,30.9
2020-11-09T00:59:00Z,00040380,21000600,,,,,,,,,,22.8,00.0,0641.2,30.9
2020-11-09T01:00:00Z,00040380,21000600,,,,,,,,,,22.8,00.0,0641.2,30.9
2020-11-09T01:01:00Z,00040380,21000600,,,,,,,,,,22.8,00.0,0641.2,30.9
2020-11-09T01:02:00Z,00040380,21000600,,,,,,,,,,22.8,00.0,0641.2,30.9
2020-11-09T01:03:00Z,00040380,61000600,,,,,,,,,,22.8,00.0,0641.2,30.9
2020-11-09T01:04:00Z,00040380,41000600,0001.51,0000.39,0000.25,-000.77,-000.04,-000.16,0000.30,0000.24,0000.07,22.6,00.0,0642.0,30.9
2020-11-09T01:05:00Z,00040380,01000600,-000.29,0000.06,0000.08,0000.61,0000.08,-000.16,0000.01,-000.05,0000.06,22.6,00.0,0642.1,30.9
2020-11-09T01:06:00Z,00040380,01000600,0000.64,0000.42,0000.14,0000.23,0000.28,0000.16,-000.02,0000.17,-000.04,22.6,00.0,0642.1,30.9
2020-11-09T01:07:00Z,00040380,01000600,0000.59,0000.54,0000.01,-000.00,0000.29,0000.36,0000.02,-000.02,0000.11,22.6,00.0,0642.2,30.9
2020-11-09T01:08:00Z,00040380,01000600,0000.12,0000.53,0000.14,0000.11,0000.04,0000.52,0000.14,-000.05,0000.09,22.6,00.0,0642.2,30.9
2020-11-09T01:09:00Z,00040380,01000600,0001.33,0000.33,0000.01,0000.14,-000.02,0000.00,0000.01,0000.19,0000.05,22.6,00.0,0642.1,30.9
2020-11-09T01:10:00Z,00040380,01000600,0000.55,0000.41,-000.11,0000.38,0000.34,0000.05,0000.01,0000.05,0000.01,22.6,00.0,0642.1,30.9
2020-11-09T01:11:00Z,00040380,01000600,0000.80,0000.02,0000.20,0000.76,0000.04,0000.03,0000.22,0000.18,0000.10,22.6,00.0,0642.1,30.9
2020-11-09T01:12:00Z,00040380,01000600,0000.82,0000.33,0000.07,0000.19,0000.09,0000.11,-000.17,0000.06,-000.05,22.6,00.0,0642.1,30.9
2020-11-09T01:13:00Z,00040380,01000600,0000.18,0000.12,0000.72,-000.03,0000.17,0000.42,0000.12,-000.00,-000.01,22.6,00.0,0642.1,30.9
2020-11-09T01:14:00Z,00040380,01000600,0000.29,0000.16,0000.50,-000.25,-000.19,0000.30,0000.09,-000.08,0000.04,22.6,00.0,0642.1,30.9
2020-11-09T01:15:00Z,00040380,01000600,0000.75,0000.40,0000.59,0000.31,-000.27,0000.60,-000.07,0000.04,0000.02,22.6,00.0,0642.1,30.9
2020-11-09T01:16:00Z,00040380,01000600,-000.18,0001.08,0000.12,-000.21,-000.10,0000.41,0000.07,0000.00,-000.00,22.6,00.0,0642.1,30.9
2020-11-09T01:17:00Z,00040380,01000600,0000.58,0000.29,0000.08,0000.02,-000.09,0000.10,0000.05,0000.07,0000.13,22.6,00.0,0642.1,30.9
2020-11-09T01:18:00Z,00040380,01000600,0000.34,0000.23,-000.20,0000.12,-000.27,-000.12,0000.10,-000.05,0000.06,22.6,00.0,0642.1,30.9
2020-11-09T01:19:00Z,00040380,01000600,0000.53,0000.62,-000.06,-000.03,0000.35,0000.23,0000.01,0000.16,-000.17,22.6,00.0,0642.1,30.9
2020-11-09T01:20:00Z,00040380,01000600,0001.99,0000.45,-000.17,0000.51,-000.12,-000.15,0000.04,-000.05,0000.07,22.5,00.0,0642.1,30.9
2020-11-09T01:21:00Z,00040380,01000600,0000.28,0000.25,0000.51,-000.19,0000.25,0000.38,0000.27,0000.21,0000.16,22.5,00.0,0642.1,30.9
2020-11-09T01:22:00Z,00040380,01000600,0000.40,0000.40,0000.22,0000.12,-000.12,0000.29,0000.04,0000.24,0000.10,22.6,00.0,0642.1,30.9
2020-11-09T01:23:00Z,00040380,01000600,0000.31,0000.26,0000.79,-000.47,0000.40,0000.02,0000.24,0000.05,0000.30,22.6,00.0,0642.1,30.9
2020-11-09T01:24:00Z,00040380,01000600,0000.44,0000.27,0000.31,-000.34,-000.08,0000.07,-000.03,-000.01,-000.18,22.6,00.0,0642.1,30.9
2020-11-09T01:25:00Z,00040380,01000600,0000.38,0000.08,0000.42,0000.18,-000.06,0000.72,0000.27,0000.33,0000.33,22.7,00.0,0642.1,30.9
2020-11-09T01:26:00Z,00040380,01000600,-001.31,0000.02,0000.57,0000.14,0000.25,0000.32,0000.00,0000.04,-000.04,22.7,00.0,0642.0,30.9
2020-11-09T01:27:00Z,00040380,01000600,0000.07,0000.39,0000.43,0000.70,-000.10,-000.07,0000.06,0000.19,0000.09,22.7,00.0,0642.0,30.9
2020-11-09T01:28:00Z,00040380,01000600,-000.04,0000.43,0000.01,-000.07,0000.10,0000.29,0000.28,0000.19,0000.13,22.7,00.0,0642.0,30.9
2020-11-09T01:29:00Z,00040380,01000600,-000.53,0000.01,0000.30,0000.63,0000.33,0000.01,0000.05,-000.02,-000.02,22.6,00.0,0642.0,30.9
2020-11-09T01:30:00Z,00040380,01000600,0000.07,0000.27,0000.21,0000.61,0000.39,-000.15,0000.11,0000.01,0000.20,22.6,00.0,0641.9,30.9
2020-11-09T01:31:00Z,00040380,01000600,0000.29,-000.07,0000.05,-000.22,-000.09,0000.57,-000.06,-000.04,-000.14,22.6,00.0,0641.9,30.9
2020-11-09T01:32:00Z,00040380,01000600,-000.72,-000.63,-000.52,0000.30,0000.39,-000.14,0000.17,0000.15,-000.07,22.6,00.0,0641.9,30.9
2020-11-09T01:33:00Z,00040380,01000600,0000.57,0000.36,0000.33,0000.68,0000.19,0000.25,0000.07,-000.09,0000.06,22.6,00.0,0641.8,30.9
2020-11-09T01:34:00Z,00040380,01000600,0000.73,0000.51,0000.62,0000.55,-000.03,0000.15,0000.30,0000.27,0000.18,22.6,00.0,0641.8,30.9
2020-11-09T01:35:00Z,00040380,01000600,0000.53,0000.90,0000.32,0000.24,-000.64,0000.03,0000.06,0000.18,0000.05,22.6,00.0,0641.8,30.9
2020-11-09T01:36:00Z,00040380,01000600,0001.10,0000.55,0000.38,-000.01,-000.06,-000.08,0000.10,0000.06,0000.14,22.6,00.0,0641.8,30.9
2020-11-09T01:37:00Z,00040380,01000600,0000.56,0000.04,0000.58,-000.03,0000.09,0000.15,0000.01,0000.27,0000.16,22.7,00.0,0641.8,30.9
2020-11-09T01:38:00Z,00040380,01000600,0000.83,0000.65,0000.05,-000.01,0000.01,0000.31,0000.05,0000.00,-000.03,22.7,00.0,0641.8,30.9
2020-11-09T01:39:00Z,00040380,01000600,0000.67,0000.45,0000.38,-000.06,0000.39,-000.02,0000.19,-000.01,0000.09,22.7,00.0,0641.8,30.9
2020-11-09T01:40:00Z,00040380,01000600,0000.91,0000.04,0000.13,0000.41,-000.01,0000.56,-000.13,-000.01,-000.07,22.7,00.0,0641.7,30.9
2020-11-09T01:41:00Z,00040380,01000600,0000.64,0000.27,0000.67,0000.10,-000.16,0000.32,0000.06,0000.15,0000.00,22.7,00.0,0641.7,30.9
2020-11-09T01:42:00Z,00040380,01000600,-000.02,0000.24,0000.20,0000.15,0000.04,0000.44,0000.09,-000.05,0000.19,22.7,00.0,0641.7,30.9
2020-11-09T01:43:00Z,00040380,01000600,0000.40,0000.08,0000.31,-000.73,-000.52,0000.00,-000.03,-000.03,-000.11,22.7,00.0,0641.7,30.9
2020-11-09T01:44:00Z,00040380,01000600,0000.76,0000.17,0000.18,-000.12,0000.25,0000.15,0000.21,0000.33,0000.09,22.7,00.0,0641.7,30.9
2020-11-09T01:45:00Z,00040380,01000600,0000.16,0000.26,0000.22,0000.70,0000.17,-000.11,0000.11,0000.15,0000.08,22.7,00.0,0641.7,30.9
2020-11-09T01:46:00Z,00040380,01000600,0001.06,-000.14,0000.37,0000.35,-000.09,0000.06,0000.25,0000.02,0000.15,22.7,00.0,0641.7,30.9
2020-11-09T01:47:00Z,00040380,01000600,0001.38,-000.37,-000.08,-000.13,0000.28,0000.33,-000.01,0000.15,0000.09,22.7,00.0,0641.7,30.9
2020-11-09T01:48:00Z,00040380,01000600,-000.05,0000.28,0000.79,-000.75,0000.15,0000.09,0000.20,-000.02,0000.00,22.7,00.0,0641.7,30.9
2020-11-09T01:49:00Z,00040380,01000600,-000.28,0000.36,0000.18,-000.14,0000.01,0000.24,-000.04,-000.09,-000.02,22.7,00.0,0641.7,30.9
2020-11-09T01:50:00Z,00040380,01000600,0000.52,0000.26,0000.10,-000.10,-000.03,0000.43,0000.06,0000.18,0000.05,22.7,00.0,0641.7,30.9
2020-11-09T01:51:00Z,00040380,01000600,0000.73,0000.30,0000.63,-000.50,-000.14,0000.16,0000.12,-000.03,0000.16,22.7,00.0,0641.7,30.9
2020-11-09T01:52:00Z,00040380,01000600,0000.46,-000.04,0000.13,0000.58,-000.01,0000.22,0000.08,0000.31,0000.10,22.7,00.0,0641.7,30.9
2020-11-09T01:53:00Z,00040380,01000600,0000.66,0000.76,-000.01,-000.17,-000.23,0000.13,0000.06,-000.12,-000.06,22.7,00.0,0641.6,30.9
2020-11-09T01:54:00Z,00040380,01000600,0000.73,0000.79,0000.14,-000.71,0000.23,0000.03,0000.03,0000.24,0000.13,22.7,00.0,0641.6,30.9
2020-11-09T01:55:00Z,00040380,01000600,0000.72,-000.06,0000.49,0000.19,-000.01,0000.29,0000.17,0000.08,0000.06,22.7,00.0,0641.6,30.9
2020-11-09T01:56:00Z,00040380,01000600,0000.01,0000.38,-000.39,0000.28,0000.33,-000.30,-000.01,0000.02,-000.02,22.7,00.0,0641.5,30.9
2020-11-09T01:57:00Z,00040380,41000600,,,,,,,,,,22.7,00.0,0641.6,30.9
2020-11-09T01:58:00Z,00040380,61000600,,,,,,,,,,22.8,00.0,0640.6,30.9
2020-11-09T01:59:00Z,00040380,21000600,,,,,,,,,,22.9,00.0,0640.6,30.9
2020-11-09T02:00:00Z,00040380,21000600,,,,,,,,,,22.9,00.0,0640.6,30.9
2020-11-09T02:01:00Z,00040380,21000600,,,,,,,,,,22.9,00.0,0640.6,30.9
2020-11-09T02:02:00Z,00040380,21000600,,,,,,,,,,22.9,00.0,0640.6,30.9
2020-11-09T02:03:00Z,00040380,61000600,,,,,,,,,,22.9,00.0,0640.6,30.9
2020-11-09T02:04:00Z,00040380,41000600,0000.83,0000.96,-000.15,0000.35,0000.23,-000.13,0000.27,0000.31,0000.10,22.7,00.0,0641.4,30.9
2020-11-09T02:05:00Z,00040380,01000600,0000.28,0000.24,-000.23,-000.15,0000.15,-000.12,0000.18,0000.07,0000.19,22.7,00.0,0641.4,30.9
2020-11-09T02:06:00Z,00040380,01000600,0001.12,0000.04,0000.02,0000.18,0000.02,0000.04,0000.27,0000.25,0000.08,22.7,00.0,0641.4,30.9
2020-11-09T02:07:00Z,00040380,01000600,0001.10,0000.04,0000.09,0000.42,0000.24,-000.20,-000.02,0000.22,-000.00,22.7,00.0,0641.4,30.9
2020-11-09T02:08:00Z,00040380,01000600,0000.33,0000.23,0000.09,0001.07,0000.35,-000.04,0000.10,-000.15,0000.09,22.8,00.0,0641.4,30.9
2020-11-09T02:09:00Z,00040380,01000600,0001.24,0000.71,0000.07,0000.46,0000.17,0000.23,0000.11,0000.26,0000.03,22.8,00.0,0641.4,30.9
2020-11-09T02:10:00Z,00040380,01000600,0000.14,0000.49,0000.26,0000.35,-000.17,0000.17,0000.03,-000.03,0000.00,22.8,00.0,0641.4,30.9
2020-11-09T02:11:00Z,00040380,01000600,0000.79,0000.45,0000.41,-000.05,0000.11,-000.33,0000.15,0000.13,0000.18,22.8,00.0,0641.4,30.9
2020-11-09T02:12:00Z,00040380,01000600,0001.35,0000.51,0000.60,0001.00,0000.08,0000.25,0000.25,0000.15,0000.21,22.8,00.0,0641.3,30.9
2020-11-09T02:13:00Z,00040380,01000600,0000.83,0000.26,0000.31,0001.26,0000.29,-000.06,-000.10,-000.06,-000.22,22.8,00.0,0641.3,30.9
2020-11-09T02:14:00Z,00040380,01000600,0001.39,0000.35,0000.42,0001.14,-000.15,0000.23,-000.02,0000.11,0000.08,22.8,00.0,0641.4,30.9
2020-11-09T02:15:00Z,00040380,01000600,0000.34,0000.11,-000.10,0000.55,0000.43,0000.11,0000.03,0000.02,0000.16,22.8,00.0,0641.4,30.9
2020-11-09T02:16:00Z,00040380,01000600,0000.63,0000.72,0000.11,0001.05,0000.35,0000.02,0000.20,0000.19,0000.13,22.8,00.0,0641.4,30.9
2020-11-09T02:17:00Z,00040380,01000600,0002.50,0000.88,0000.38,0001.12,0000.21,-000.12,0000.02,0000.14,-000.01,22.8,00.0,0641.3,30.9
2020-11-09T02:18:00Z,00040380,01000600,0002.11,0000.48,-000.03,0000.74,0000.24,-000.28,0000.09,-000.08,0000.16,22.7,00.0,0641.3,30.9
2020-11-09T02:19:00Z,00040380,01000600,0000.36,0000.53,-000.03,0001.07,0000.14,-000.01,0000.12,-000.10,-000.15,22.7,00.0,0641.3,30.9
2020-11-09T02:20:00Z,00040380,01000600,0001.20,0000.16,-000.07,0000.57,0000.57,-000.43,-000.00,0000.16,0000.06,22.7,00.0,0641.3,30.9
2020-11-09T02:21:00Z,00040380,01000600,0000.79,0000.72,-000.03,0001.82,0000.48,0000.23,0000.05,0000.09,-000.05,22.8,00.0,0641.3,30.9
2020-11-09T02:22:00Z,00040380,01000600,0001.54,0001.08,-000.53,0000.50,0000.14,-000.66,0000.05,0000.07,0000.11,22.8,00.0,0641.3,30.9
2020-11-09T02:23:00Z,00040380,01000600,0000.74,-000.10,-000.14,0000.60,0000.26,-000.06,-000.00,-000.11,0000.12,22.9,00.0,0641.4,30.9
2020-11-09T02:24:00Z,00040380,01000600,0000.19,0000.39,0000.04,0000.27,0000.33,0000.21,-000.03,0000.11,-000.09,22.9,00.0,0641.4,30.9
2020-11-09T02:25:00Z,00040380,01000600,-000.02,0000.50,0000.30,0000.46,0000.50,-000.19,0000.03,-000.04,0000.08,22.9,00.0,0641.3,30.9
2020-11-09T02:26:00Z,00040380,01000600,0000.01,0000.20,0000.22,0000.23,0000.02,-000.01,0000.04,-000.08,0000.04,22.9,00.0,0641.3,30.9
2020-11-09T02:27:00Z,00040380,01000600,0001.37,0000.37,0000.58,0000.63,-000.45,0000.12,-000.01,0000.33,0000.17,22.9,00.0,0641.3,30.9
2020-11-09T02:28:00Z,00040380,01000600,-000.34,0001.40,0000.04,-000.35,0000.59,-000.33,0000.08,-000.03,-000.06,22.9,00.0,0641.3,30.9
2020-11-09T02:29:00Z,00040380,01000600,-000.75,0000.47,0000.33,0000.65,0000.09,-000.07,0000.09,-000.03,0000.15,22.9,00.0,0641.2,30.9
2020-11-09T02:30:00Z,00040380,01000600,0001.68,0000.61,-000.04,0000.55,0000.30,-000.13,-000.06,-000.03,-000.11,22.9,00.0,0641.1,30.9
2020-11-09T02:31:00Z,00040380,01000600,0001.41,0000.16,0000.08,0000.13,0000.34,-000.10,0000.04,0000.14,0000.06,22.9,00.0,0641.2,30.9
2020-11-09T02:32:00Z,00040380,01000600,0001.53,0000.53,0000.24,-000.00,0000.12,0000.21,0000.17,0000.13,0000.13,22.9,00.0,0641.1,30.9
2020-11-09T02:33:00Z,00040380,01000600,0000.71,0000.39,-000.21,0000.69,0000.48,0000.01,0000.07,-000.07,-000.11,22.9,00.0,0641.1,30.9
2020-11-09T02:34:00Z,00040380,01000600,-000.39,0000.42,0000.10,0000.67,0000.10,0000.10,0000.01,0000.08,0000.18,22.9,00.0,0641.2,30.9
2020-11-09T02:35:00Z,00040380,01000600,0000.65,0000.67,0000.15,0000.08,-000.35,-000.23,0000.11,-000.01,-000.11,22.9,00.0,0641.2,30.9
2020-11-09T02:36:00Z,00040380,01000600,-000.44,0000.69,0000.16,0000.89,0000.14,0000.50,0000.02,0000.02,0000.05,22.9,00.0,0641.1,30.9
2020-11-09T02:37:00Z,00040380,01000600,0000.12,-000.21,0000.07,0001.18,0000.10,-000.08,0000.03,0000.18,0000.10,22.9,00.0,0641.1,30.9
2020-11-09T02:38:00Z,00040380,01000600,-001.38,0000.47,0000.29,0000.60,0000.17,0000.05,0000.13,0000.14,0000.05,22.9,00.0,0641.1,30.9
2020-11-09T02:39:00Z,00040380,01000600,-000.25,0000.63,0000.23,-000.01,0000.44,-000.10,-000.07,0000.03,-000.13,22.9,00.0,0641.0,30.9
2020-11-09T02:40:00Z,00040380,01000600,0000.11,0000.21,-000.10,0000.53,0000.08,-000.02,0000.17,-000.16,0000.20,22.9,00.0,0641.1,30.9
2020-11-09T02:41:00Z,00040380,01000600,0001.25,0000.49,0000.28,0000.58,-000.06,0000.31,0000.02,0000.29,0000.08,22.9,00.0,0641.0,30.9
2020-11-09T02:42:00Z,00040380,01000600,-000.59,0000.37,-000.00,-000.00,0000.20,-000.24,0000.14,0000.10,0000.07,22.9,00.0,0641.0,30.9
2020-11-09T02:43:00Z,00040380,01000600,0000.84,-000.05,-000.06,0000.03,0000.49,0000.03,0000.02,0000.07,-000.00,22.9,00.0,0641.1,30.9
2020-11-09T02:44:00Z,00040380,01000600,0000.08,0000.08,0000.04,0000.59,-000.34,-000.25,0000.03,0000.07,-000.04,22.9,00.0,0641.0,30.9
2020-11-09T02:45:00Z,00040380,01000600,-000.91,0000.03,0000.23,0000.62,-000.11,0000.16,-000.05,-000.09,0000.18,22.9,00.0,0641.0,30.9
2020-11-09T02:46:00Z,00040380,01000600,-000.11,0000.32,-000.13,-000.09,0000.26,-000.07,0000.35,0000.10,0000.05,22.9,00.0,0641.0,30.9
2020-11-09T02:47:00Z,00040380,01000600,0000.41,0000.21,-000.23,0001.62,0000.14,-000.35,-000.12,0000.06,-000.11,22.9,00.0,0641.0,30.9
2020-11-09T02:48:00Z,00040380,01000600,0001.47,0000.14,0000.44,0000.74,0000.21,-000.05,0000.18,0000.01,0000.16,22.9,00.0,0641.0,30.9
2020-11-09T02:49:00Z,00040380,01000600,0000.74,0000.21,-000.05,0000.62,0000.47,-000.23,0000.17,0000.14,0000.16,22.9,00.0,0641.1,30.9
2020-11-09T02:50:00Z,00040380,01000600,0000.21,0000.12,-000.03,0000.54,0000.05,-000.32,0000.09,0000.04,-000.07,22.9,00.0,0641.1,30.9
2020-11-09T02:51:00Z,00040380,01000600,0000.55,0000.58,-000.14,0000.55,0000.09,-000.14,0000.05,0000.15,0000.08,22.9,00.0,0641.1,30.9
2020-11-09T02:52:00Z,00040380,01000600,0000.41,0001.01,-000.06,0000.26,0000.61,0000.11,0000.20,-000.00,0000.05,22.9,00.0,0641.0,30.9
2020-11-09T02:53:00Z,00040380,01000600,0001.45,0000.18,0000.43,0000.82,0000.34,0000.06,-000.25,0000.03,0000.02,23.0,00.0,0641.0,30.9
2020-11-09T02:54:00Z,00040380,01000600,0000.73,0000.18,-000.13,0000.39,-000.16,-000.04,0000.35,0000.29,0000.20,23.0,00.0,0640.9,30.9
2020-11-09T02:55:00Z,00040380,01000600,0001.41,0000.79,-000.49,0000.58,-000.35,-000.07,0000.17,0000.07,0000.04,23.0,00.0,0641.0,30.9
2020-11-09T02:56:00Z,00040380,01000600,0000.24,0000.63,-000.14,0000.34,-000.03,-000.09,-000.03,0000.21,-000.02,23.0,00.0,0641.0,30.9
2020-11-09T02:57:00Z,00040380,41000600,,,,,,,,,,23.0,00.0,0640.8,30.9
2020-11-09T02:58:00Z,00040380,61000600,,,,,,,,,,23.1,00.0,0640.2,30.9
2020-11-09T02:59:00Z,00040380,21000600,,,,,,,,,,23.2,00.0,0640.2,30.9
2020-11-09T03:00:00Z,00040380,21000600,,,,,,,,,,23.2,00.0,0640.2,30.9
2020-11-09T03:01:00Z,00040380,21000600,,,,,,,,,,23.2,00.0,0640.1,30.9
2020-11-09T03:02:00Z,00040380,21000600,,,,,,,,,,23.2,00.0,0640.1,30.9
2020-11-09T03:03:00Z,00040380,61000600,,,,,,,,,,23.2,00.0,0640.1,30.9
2020-11-09T03:04:00Z,00040380,41000600,0000.38,-000.27,0000.09,-000.07,0000.28,-000.05,0000.04,0000.19,-000.08,23.0,00.0,0640.8,30.9
2020-11-09T03:05:00Z,00040380,01000600,0000.01,-000.40,0000.38,0000.12,-000.26,-000.47,0000.18,-000.01,0000.02,23.0,00.0,0640.8,30.9
2020-11-09T03:06:00Z,00040380,01000600,0000.61,0000.37,0000.32,0000.09,0000.52,-000.05,0000.20,0000.17,0000.12,23.0,00.0,0640.7,30.9
2020-11-09T03:07:00Z,00040380,01000600,-000.04,0000.45,-000.21,0000.46,0000.21,0000.32,0000.06,0000.26,0000.19,23.0,00.0,0640.7,30.9
2020-11-09T03:08:00Z,00040380,01000600,0000.50,-000.05,-000.16,0000.59,0000.46,-000.01,0000.17,-000.04,-000.03,23.1,00.1,0640.7,30.9
2020-11-09T03:09:00Z,00040380,01000600,0000.42,0000.02,0000.69,0000.04,0000.36,-000.11,-000.07,0000.07,0000.17,23.0,00.0,0640.6,30.9
2020-11-09T03:10:00Z,00040380,01000600,-000.00,-000.45,0000.06,0000.86,-000.02,-000.22,0000.19,0000.15,0000.04,23.1,00.1,0640.6,30.9